Terminal Aerodrome Forecast
Issued by NWS Portland, OR

Home | Current Version | Previous Version | Text Only | Print | Product List | Glossary On
Versions: 1 2 3 4 5 6 7 8 9 10 11 12 13 14 15 16 17 18 19 20 21 22 23 24 25 26 27 28 29 30 31 32
000
FTUS46 KPQR 280522
TAFAST
TAF
KAST 280522Z 2806/2906 20008KT P6SM -RA SCT080 OVC100
     FM281000 17003KT P6SM -RA SCT015 BKN025 OVC040
     FM281300 20004KT P6SM -RA BKN008 OVC015
     FM281700 21008KT P6SM -RA SCT008 BKN015 OVC025
     FM290100 22006KT P6SM VCSH FEW015 SCT025 OVC035=

USA.gov is the U.S. government's official web portal to all federal, state and local government web resources and services.